Ankeny Regional Airport
Saturday 11:15 PM
Temperature32° (48°/25°)
Dew Point28°
Relative Humidity86
%
Visibility10
mi
Pressure1021.0
mb
Wind Direction
Wind SpeedCalm
Precipitation Today0.00"

Last 30 Observations

Time PresWx Temp DP Feels RH% Vsby Pressure Ceiling Direction Speed 1h Precip
11:15 PM 32° 28° 86
%
10
mi
1021.0
mb
Calm 0.00"
10:55 PM 36° 28° 75
%
10
mi
1021.0
mb
Calm 0.00"
10:35 PM 36° 28° 75
%
10
mi
1021.0
mb
Calm 0.00"
10:15 PM 36° 28° 32°75
%
10
mi
1021.0
mb
N
10°
5
mph
0.00"
9:55 PM 37° 28° 33°70
%
10
mi
1021.0
mb
N
10°
6
mph
0.00"
9:35 PM 37° 28° 34°70
%
10
mi
1021.0
mb
N
10°
5
mph
0.00"
9:15 PM 39° 28° 36°65
%
10
mi
1020.7
mb
N
10°
5
mph
0.00"
8:55 PM 39° 28° 37°65
%
10
mi
1020.7
mb
NNE
30°
3
mph
0.00"
8:35 PM 39° 30° 36°70
%
10
mi
1020.7
mb
NE
40°
5
mph
0.00"
8:15 PM 43° 28° 41°57
%
10
mi
1020.7
mb
NE
40°
3
mph
0.00"
7:55 PM 43° 27° 41°52
%
10
mi
1020.7
mb
NE
50°
3
mph
0.00"
7:35 PM 45° 27° 49
%
10
mi
1021.0
mb
Calm 0.00"
7:15 PM 46° 25° 43°42
%
10
mi
1021.0
mb
ENE
60°
6
mph
0.00"
6:55 PM 46° 27° 43°46
%
10
mi
1021.0
mb
ENE
60°
6
mph
0.00"
6:35 PM 48° 25° 45°40
%
10
mi
1020.7
mb
E
80°
8
mph
0.00"
6:15 PM 48° 25° 45°40
%
10
mi
1020.7
mb
E
80°
8
mph
0.00"
5:55 PM 48° 25° 45°40
%
10
mi
1020.7
mb
Variable 7
mph
0.00"
5:35 PM 48° 25° 46°40
%
10
mi
1020.7
mb
Variable 5
mph
0.00"
5:15 PM 48° 25° 44°40
%
10
mi
1020.7
mb
ENE
70°
9
mph
0.00"
4:55 PM 48° 27° 45°43
%
10
mi
1020.7
mb
E
90°
7
mph
0.00"
4:35 PM 48° 25° 45°40
%
0
mi
1021.0
mb
NE
40°
8
mph
0.00"
4:15 PM 46° 25° 42°42
%
10
mi
1021.3
mb
ENE
70°
9
mph
0.00"
3:55 PM 46° 27° 42°46
%
10
mi
1021.3
mb
ENE
70°
9
mph
0.00"
3:35 PM 46° 27° 44°46
%
10
mi
1021.7
mb
Variable 5
mph
0.00"
3:15 PM 46° 30° 42°53
%
10
mi
1022.4
mb
NE
40°
8
mph
(G15)
0.00"
2:55 PM 45° 28° 40°53
%
10
mi
1022.7
mb
NE
50°
9
mph
0.00"
2:35 PM 43° 30° 37°61
%
10
mi
1023.0
mb
11,000
ft
E
80°
9
mph
0.00"
2:15 PM 43° 30° 39°61
%
10
mi
1023.4
mb
11,000
ft
NNE
30°
7
mph
(G13)
0.00"
1:55 PM 41° 30° 36°65
%
10
mi
1023.7
mb
Variable 7
mph
0.00"
1:35 PM 41° 32° 36°70
%
10
mi
1024.1
mb
N
10°
8
mph
0.00"